Wind_Speed
17 16 15 15 15 15 15 13 13 12 11 10 9 9 7 7 8 10 12 11 12 11 10 13 13 15 7 5 4 9 14 13 9 10 10 8 5 3 6 3 3 2 6 4 6
18 17 16 16 15 15 14 13 12 11 10 9 9 8 8 6 8 9 8 10 12 12 11 14 19 13 12 4 5 11 12 14 11 11 13 10 9 2 4 3 3 2 4 5 7
21 19 18 17 16 17 16 15 14 12 11 10 10 9 9 7 8 7 8 10 11 13 16 15 19 12 7 10 8 11 10 15 8 14 15 10 7 6 4 3 5 4 2 6 4
23 23 21 19 18 17 16 16 15 15 13 11 11 11 9 7 6 6 7 9 11 14 16 19 17 13 7 5 6 9 12 11 10 9 12 10 6 7 8 7 7 8 5 6 4
24 24 23 22 20 18 17 16 16 16 15 14 13 13 11 7 5 5 6 8 9 12 17 21 18 12 4 8 4 9 9 9 10 14 17 11 8 10 9 7 5 5 5 3 4
26 25 25 24 23 21 19 18 17 16 15 15 15 16 13 8 8 6 7 8 7 10 17 20 17 6 3 1 7 6 9 10 10 13 13 9 13 10 8 6 4 4 3 3 3
28 28 27 26 25 24 22 20 18 17 15 16 16 16 15 11 10 9 9 8 7 11 17 19 14 4 2 6 4 3 6 11 11 9 6 7 10 10 13 11 6 5 6 2 2
30 29 29 28 28 26 25 23 21 19 17 16 16 18 18 16 15 11 10 9 9 10 15 18 10 8 7 3 4 4 7 11 4 12 9 7 9 11 12 13 11 8 10 7 3
30 30 30 29 29 29 28 26 24 22 20 17 17 18 17 20 16 12 12 10 11 12 17 17 10 8 7 6 1 1 2 6 4 5 7 8 7 6 8 11 11 9 10 9 7
31 31 31 30 30 30 31 29 27 25 22 19 19 19 16 16 16 14 13 12 13 14 16 13 12 6 11 10 6 3 3 5 4 10 10 4 1 2 4 5 6 6 4 7 7
32 32 32 32 32 31 31 31 29 26 24 22 20 21 17 17 18 18 14 13 15 16 13 10 13 4 9 9 11 8 4 4 9 9 13 14 10 4 4 6 3 4 3 3 4
28 31 33 33 33 34 33 30 30 27 25 24 23 23 19 19 20 18 18 16 15 12 12 13 9 11 11 8 5 7 8 8 7 3 2 6 9 4 5 5 7 6 7 6 6
30 30 30 30 32 35 34 32 30 30 27 26 24 26 22 19 22 20 22 19 16 14 13 10 11 13 14 9 4 8 7 12 11 6 4 1 7 6 8 9 5 10 13 12 10
31 32 32 32 32 32 34 34 33 31 28 29 27 30 22 23 24 22 21 21 18 13 15 10 17 18 16 13 8 6 8 13 14 6 3 3 6 7 9 10 9 6 11 15 18
27 29 31 32 33 33 33 33 34 33 28 30 29 29 24 25 27 22 24 22 19 18 15 12 18 21 19 17 14 15 8 9 11 11 10 7 3 7 10 12 16 8 10 12 11
24 25 28 29 30 31 32 33 31 31 29 28 30 32 30 27 28 24 24 24 24 22 17 18 22 24 25 20 18 19 10 15 15 15 11 11 5 3 7 12 12 9 11 10 6
21 24 24 25 28 31 32 32 30 29 28 32 32 33 34 31 31 26 26 23 25 23 19 21 21 21 22 20 18 20 13 11 10 10 11 9 8 5 7 11 6 2 2 8 4
20 20 21 23 24 27 31 31 29 27 30 32 32 30 31 32 32 28 26 24 24 21 21 22 23 20 18 21 16 15 14 10 10 10 13 12 12 7 11 10 10 3 8 3 4
22 23 22 22 25 27 28 29 26 28 31 30 30 29 30 31 32 31 27 24 24 23 23 21 20 20 20 25 23 21 20 15 15 10 7 9 12 12 8 8 6 4 7 5 7
20 23 25 24 26 28 29 27 26 28 31 32 31 31 31 30 30 30 30 26 24 23 24 23 22 26 27 30 24 22 18 17 14 10 5 7 10 4 3 4 4 6 13 10 9
17 21 25 27 27 27 27 25 27 31 33 33 34 30 31 31 30 31 29 29 29 27 25 24 22 28 29 29 22 20 19 18 15 9 4 5 5 6 7 4 3 12 12 3 2
15 18 23 30 28 27 27 26 31 34 35 34 37 34 32 32 32 30 26 25 25 24 22 22 25 31 30 31 27 26 21 19 19 17 13 14 10 5 8 9 7 7 10 8 5
16 16 17 24 27 25 24 24 29 35 37 33 33 36 35 32 31 28 22 25 29 29 28 24 23 27 33 30 29 30 24 20 23 21 18 18 11 11 3 8 5 6 10 11 16
15 15 13 19 25 22 21 23 29 37 39 36 34 38 36 32 29 27 24 25 26 26 24 26 24 26 27 28 28 31 27 25 23 23 21 20 14 14 9 10 11 5 11 14 16
15 12 13 17 20 20 19 24 30 41 42 39 35 38 37 34 30 28 28 25 26 24 25 26 25 25 24 29 35 36 34 30 27 29 27 22 15 8 13 9 13 8 11 15 19
16 14 17 17 19 19 20 25 32 42 44 45 39 37 35 33 30 27 29 25 25 27 27 26 23 24 22 32 35 39 39 36 27 29 31 29 22 15 15 14 11 9 7 12 15
19 16 19 18 19 19 21 27 32 43 44 47 43 40 35 34 30 28 27 25 27 29 28 26 24 24 22 26 36 41 44 43 36 34 35 33 27 17 14 13 13 5 11 15 18
Wind_Direction
230 232 232 232 233 234 236 238 241 244 249 256 260 261 255 258 260 264 262 263 266 268 274 273 266 273 320 11 46 344 4 8 15 8 15 21 11 123 82 94 128 156 100 114 106
233 232 234 235 234 235 235 237 237 239 242 247 249 254 256 252 262 269 298 285 273 267 262 264 276 298 345 7 6 347 359 336 353 11 29 18 11 348 87 100 160 166 111 122 111
235 237 238 238 239 239 237 236 237 236 237 240 245 247 250 254 262 273 273 271 282 271 263 266 275 281 324 20 0 1 12 347 5 12 31 17 15 67 97 149 163 190 177 129 134
236 238 239 239 239 240 242 242 239 238 237 235 239 243 243 246 269 269 272 272 273 272 273 269 276 280 332 32 352 6 17 11 42 18 36 27 38 76 125 144 165 181 211 142 169
233 236 239 241 241 241 241 241 242 240 236 231 231 237 240 242 251 251 244 261 266 274 276 272 283 297 19 53 355 344 4 2 28 25 19 7 22 45 72 109 159 176 209 173 169
234 233 236 238 240 241 241 240 241 241 238 233 231 235 238 236 242 247 259 265 263 266 258 273 294 324 175 347 323 345 19 42 23 26 17 0 26 25 64 97 128 143 183 191 198
234 234 234 235 236 239 241 242 242 244 243 238 237 240 240 234 230 234 249 259 248 256 257 272 305 308 291 338 216 286 26 355 5 37 69 35 39 42 62 69 91 130 139 158 236
234 235 235 235 234 235 238 240 240 240 241 241 241 243 246 241 241 247 253 256 250 248 257 263 299 231 227 152 89 335 350 329 359 86 78 75 49 44 62 78 85 95 107 109 90
236 235 236 235 235 234 235 236 237 238 238 238 242 244 244 249 250 253 256 257 252 251 253 262 276 246 177 173 327 11 81 40 73 112 76 78 66 38 47 71 88 101 101 107 112
237 236 235 236 236 236 235 233 233 236 235 235 239 242 243 245 251 246 248 263 258 258 259 269 265 211 199 207 248 305 99 70 82 97 96 76 42 51 33 49 67 86 104 119 106
236 236 235 235 235 236 236 236 236 236 236 233 235 241 237 230 241 237 238 244 259 268 265 252 247 202 209 210 240 248 258 119 114 83 83 68 93 104 12 354 11 43 59 32 79
236 236 236 236 235 234 235 237 238 236 234 232 233 240 235 232 235 242 238 238 252 264 262 249 242 209 198 204 253 276 203 179 157 203 202 55 97 110 4 299 322 321 345 1 0
240 239 237 237 237 236 234 236 237 237 232 232 230 238 231 233 233 233 237 230 234 244 250 262 207 217 201 174 240 253 173 200 207 199 184 107 340 357 14 22 278 321 323 332 337
245 244 242 240 239 237 236 236 236 235 232 234 228 236 228 230 235 227 234 235 235 228 234 224 214 208 207 179 187 222 208 209 223 237 192 249 313 330 340 351 20 312 320 321 325
244 243 242 241 240 237 237 236 236 236 232 231 229 232 229 230 234 227 228 228 231 227 229 217 225 210 218 195 196 218 210 187 201 222 225 242 300 282 306 328 330 348 312 307 316
245 244 241 239 238 236 235 237 235 235 232 228 228 227 228 227 232 228 231 226 225 231 220 217 227 218 220 203 202 237 201 219 222 235 242 257 270 323 351 331 315 300 304 310 317
242 243 242 241 239 237 235 235 236 232 227 227 230 227 227 223 230 227 226 226 229 234 234 232 239 232 224 211 204 228 209 218 234 252 259 261 239 279 334 2 332 247 27 349 224
244 242 240 239 238 235 234 233 233 227 225 226 228 227 228 225 229 227 227 226 225 226 228 232 234 242 228 220 210 220 216 228 262 276 258 269 279 295 315 304 324 143 121 86 45
244 244 242 241 238 236 233 231 228 225 223 218 220 225 227 223 227 224 224 222 222 218 226 238 238 234 214 222 222 230 237 239 249 259 279 289 291 313 300 278 343 229 273 282 254
245 245 245 244 242 237 233 229 222 218 219 207 211 219 223 224 224 225 222 220 218 217 218 227 228 227 208 223 226 235 229 241 262 256 296 287 296 270 303 307 73 7 337 306 251
252 255 248 242 239 238 231 223 212 205 214 207 206 207 219 225 222 221 217 220 219 216 217 220 225 226 221 225 229 232 225 238 236 223 260 289 217 259 276 338 322 358 345 289 213
274 278 255 237 235 235 231 217 211 207 209 211 207 205 214 224 228 224 215 216 221 221 218 219 220 220 217 218 222 234 227 235 235 248 260 265 206 230 291 291 332 342 335 330 6
276 283 264 233 227 231 229 221 211 208 207 211 211 207 212 218 220 211 202 215 219 216 211 215 221 216 218 219 218 223 228 242 249 257 261 274 256 224 246 293 318 321 314 324 321
271 277 257 231 226 231 227 213 207 208 204 206 210 208 212 212 213 201 182 209 219 220 214 217 210 221 231 230 221 224 225 243 253 257 270 271 273 246 262 277 294 294 297 307 301
260 262 239 226 229 233 226 212 203 205 206 206 211 212 216 221 217 200 187 209 207 203 207 218 213 215 215 213 217 225 230 237 246 255 263 268 259 251 264 277 277 304 303 304 311
242 241 233 224 220 222 219 209 205 205 209 209 212 217 221 221 226 226 209 214 215 210 210 212 222 220 208 218 221 227 228 232 242 254 262 265 268 279 282 246 266 287 299 307 319
231 230 232 236 236 225 212 205 204 205 213 214 213 219 218 215 221 230 226 218 219 210 215 220 228 222 225 235 228 232 232 233 236 246 257 263 270 258 251 274 279 275 294 300 321
Height
5882 5884 5886 5888 5889 5890 5892 5893 5894 5894 5894 5896 5896 5897 5897 5897 5897 5896 5896 5896 5896 5896 5896 5896 5894 5895 5898 5897 5897 5897 5898 5897 5893 5891 5893 5890 5889 5887 5886 5884 5883 5884 5885 5886 5885
5880 5882 5884 5885 5887 5889 5890 5891 5892 5893 5894 5895 5895 5896 5896 5896 5896 5896 5897 5896 5895 5895 5896 5895 5893 5895 5899 5899 5898 5898 5898 5897 5895 5893 5892 5890 5889 5888 5887 5885 5885 5885 5886 5886 5885
5876 5878 5881 5883 5884 5885 5888 5889 5890 5892 5893 5894 5894 5894 5896 5896 5896 5896 5895 5894 5894 5895 5894 5894 5894 5896 5899 5900 5900 5899 5898 5895 5894 5893 5890 5891 5890 5888 5888 5886 5885 5884 5885 5887 5887
5872 5875 5877 5879 5881 5882 5884 5886 5888 5889 5891 5892 5892 5893 5895 5895 5897 5895 5895 5894 5894 5895 5894 5892 5894 5896 5900 5900 5899 5900 5898 5897 5895 5893 5890 5891 5891 5889 5889 5887 5885 5884 5885 5887 5888
5869 5871 5873 5875 5878 5879 5881 5883 5885 5886 5888 5890 5891 5892 5893 5894 5895 5894 5894 5894 5894 5894 5894 5892 5895 5897 5901 5900 5900 5900 5898 5897 5896 5893 5890 5891 5891 5889 5890 5889 5888 5887 5885 5886 5887
5865 5867 5869 5871 5874 5876 5878 5880 5882 5883 5885 5887 5889 5890 5891 5894 5893 5893 5893 5894 5894 5894 5892 5892 5895 5900 5900 5902 5902 5901 5898 5898 5896 5894 5893 5893 5888 5890 5891 5890 5890 5888 5888 5887 5887
5861 5863 5865 5867 5869 5871 5873 5876 5878 5880 5882 5884 5886 5887 5889 5892 5891 5892 5892 5893 5893 5892 5892 5891 5895 5899 5901 5903 5901 5900 5900 5897 5895 5895 5895 5895 5893 5891 5891 5891 5890 5890 5889 5890 5890
5856 5858 5860 5862 5865 5867 5869 5872 5874 5876 5879 5881 5883 5884 5886 5887 5889 5890 5891 5892 5892 5891 5891 5891 5895 5899 5901 5905 5904 5902 5900 5897 5897 5898 5898 5898 5896 5895 5893 5893 5892 5893 5892 5893 5893
5850 5853 5856 5858 5860 5863 5865 5868 5871 5873 5875 5878 5880 5881 5884 5884 5887 5889 5889 5890 5890 5890 5889 5890 5893 5898 5901 5904 5904 5903 5900 5898 5899 5899 5899 5899 5897 5897 5896 5894 5895 5896 5897 5895 5894
5844 5847 5850 5853 5855 5858 5860 5863 5866 5870 5873 5876 5877 5879 5882 5884 5884 5886 5887 5888 5889 5889 5889 5890 5891 5896 5899 5901 5903 5903 5900 5899 5900 5902 5900 5900 5898 5898 5897 5896 5896 5896 5896 5896 5896
5839 5842 5844 5847 5850 5853 5856 5860 5864 5867 5869 5872 5875 5875 5878 5880 5880 5882 5884 5886 5887 5889 5888 5888 5890 5896 5897 5900 5901 5902 5901 5900 5901 5903 5902 5900 5899 5900 5899 5898 5897 5896 5898 5897 5896
5833 5835 5839 5841 5844 5847 5851 5855 5858 5863 5865 5867 5870 5870 5874 5877 5878 5880 5882 5885 5885 5887 5887 5888 5890 5893 5896 5900 5901 5900 5899 5899 5900 5901 5902 5901 5901 5902 5901 5899 5897 5897 5898 5898 5899
5827 5830 5833 5835 5838 5842 5845 5849 5852 5855 5860 5863 5865 5866 5870 5874 5874 5877 5878 5882 5883 5884 5885 5887 5890 5890 5895 5898 5900 5899 5898 5899 5900 5901 5901 5901 5900 5901 5901 5899 5899 5899 5898 5898 5898
5821 5823 5826 5829 5834 5836 5839 5843 5846 5849 5855 5858 5861 5860 5867 5868 5870 5874 5877 5879 5881 5883 5883 5885 5886 5888 5892 5896 5900 5899 5899 5898 5900 5903 5903 5903 5901 5899 5899 5901 5902 5901 5899 5898 5898
5814 5816 5819 5822 5825 5829 5833 5835 5839 5844 5849 5852 5855 5857 5862 5865 5865 5870 5872 5876 5878 5879 5882 5885 5883 5886 5889 5894 5897 5898 5900 5900 5901 5902 5903 5903 5903 5902 5901 5901 5899 5901 5900 5897 5898
5808 5810 5813 5816 5819 5822 5825 5829 5834 5840 5841 5844 5846 5850 5855 5858 5860 5865 5868 5872 5874 5876 5878 5880 5881 5883 5886 5891 5895 5897 5898 5900 5900 5900 5902 5902 5903 5903 5902 5901 5898 5897 5895 5894 5896
5803 5804 5807 5810 5813 5815 5819 5823 5828 5831 5835 5838 5840 5844 5848 5852 5855 5859 5863 5867 5870 5873 5876 5877 5878 5881 5884 5889 5893 5896 5896 5898 5900 5900 5900 5900 5901 5902 5901 5901 5897 5894 5895 5894 5892
5798 5800 5802 5805 5807 5809 5813 5818 5821 5824 5828 5832 5835 5839 5843 5848 5851 5855 5858 5863 5866 5870 5871 5874 5876 5879 5883 5887 5893 5893 5894 5895 5895 5896 5897 5898 5899 5900 5899 5899 5898 5895 5893 5892 5891
5793 5795 5797 5799 5802 5804 5808 5812 5815 5818 5822 5827 5830 5834 5838 5841 5846 5850 5854 5858 5862 5865 5869 5871 5874 5877 5881 5884 5890 5891 5893 5893 5893 5893 5894 5896 5896 5897 5896 5896 5897 5894 5893 5891 5888
5788 5790 5792 5794 5796 5799 5803 5807 5810 5813 5815 5822 5826 5829 5832 5837 5842 5846 5849 5853 5856 5860 5862 5866 5871 5874 5878 5880 5885 5889 5891 5891 5891 5891 5892 5893 5893 5894 5894 5894 5893 5893 5891 5888 5885
5784 5785 5786 5788 5791 5794 5797 5801 5804 5806 5811 5818 5822 5826 5829 5833 5837 5841 5845 5848 5851 5854 5858 5862 5867 5871 5874 5876 5882 5885 5887 5888 5890 5889 5889 5889 5892 5893 5892 5891 5891 5890 5888 5886 5885
5779 5779 5779 5782 5786 5788 5792 5795 5798 5802 5807 5812 5818 5822 5825 5830 5834 5838 5841 5844 5847 5852 5856 5859 5861 5864 5869 5873 5878 5880 5882 5885 5886 5888 5887 5887 5888 5888 5890 5889 5890 5888 5888 5886 5885
5774 5773 5773 5775 5779 5782 5786 5791 5796 5800 5804 5809 5814 5819 5822 5827 5831 5834 5837 5840 5843 5845 5849 5853 5859 5862 5864 5869 5873 5875 5879 5882 5882 5883 5883 5883 5885 5885 5886 5887 5887 5885 5884 5883 5883
5770 5769 5769 5771 5774 5778 5782 5786 5791 5795 5801 5805 5810 5815 5820 5823 5828 5831 5835 5838 5841 5845 5847 5849 5854 5858 5862 5867 5871 5873 5876 5878 5878 5879 5879 5879 5880 5882 5883 5885 5886 5886 5885 5883 5881
5765 5765 5766 5768 5771 5775 5778 5782 5785 5790 5796 5802 5806 5811 5816 5822 5824 5830 5833 5836 5840 5842 5844 5847 5850 5854 5858 5863 5865 5868 5870 5872 5874 5875 5875 5877 5876 5878 5879 5881 5882 5882 5881 5880 5879
5761 5761 5762 5764 5767 5770 5774 5778 5781 5786 5792 5797 5802 5807 5813 5819 5823 5828 5831 5833 5836 5839 5841 5844 5847 5850 5854 5857 5859 5861 5864 5867 5869 5869 5870 5872 5873 5875 5875 5875 5878 5879 5878 5877 5875
5755 5757 5758 5761 5763 5767 5770 5773 5777 5783 5787 5792 5798 5802 5808 5814 5819 5824 5827 5830 5833 5835 5838 5841 5843 5846 5849 5851 5853 5855 5858 5861 5864 5864 5866 5867 5870 5872 5873 5873 5874 5875 5874 5873 5871